20040406,000000,1209590,31.655640,-123.081280,15.666,33.074,NaN,NaN
20040406,000030,1209620,31.655740,-123.081620,15.666,33.067,NaN,NaN
20040406,000101,1209651,31.655810,-123.081950,15.664,33.076,NaN,NaN
20040406,000131,1209681,31.655880,-123.082260,15.673,33.076,NaN,NaN
20040406,000201,1209711,31.655950,-123.082540,15.669,33.077,NaN,NaN
20040406,000231,1209740,31.655990,-123.082820,15.669,33.073,NaN,NaN
20040406,000301,1209771,31.656010,-123.083070,15.669,33.078,NaN,NaN
20040406,000331,1209801,31.656010,-123.083260,15.667,33.079,NaN,NaN
20040406,000401,1209831,31.655990,-123.083440,15.665,33.080,NaN,NaN
20040406,000431,1209861,31.655960,-123.083620,15.662,33.081,NaN,NaN
20040406,000501,1209891,31.655970,-123.083770,15.639,33.082,NaN,NaN
20040406,000531,1209920,31.655940,-123.083940,15.616,33.084,NaN,NaN
20040406,000601,1209951,31.655940,-123.084080,15.601,33.084,NaN,NaN
20040406,000631,1209981,31.655910,-123.084250,15.593,33.085,NaN,NaN
20040406,000701,1210011,31.655870,-123.084400,15.594,33.086,NaN,NaN
20040406,000731,1210041,31.655800,-123.084570,15.603,33.084,NaN,NaN
20040406,000801,1210071,31.655770,-123.084740,15.601,33.086,NaN,NaN
20040406,000831,1210101,31.655730,-123.084880,15.602,33.085,NaN,NaN
20040406,000901,1210131,31.655690,-123.085030,15.600,33.086,NaN,NaN
20040406,000931,1210161,31.655670,-123.085190,15.602,33.086,NaN,NaN
20040406,001001,1210191,31.655640,-123.085330,15.604,33.086,NaN,NaN
20040406,001031,1210221,31.655620,-123.085450,15.606,33.087,NaN,NaN
20040406,001101,1210250,31.655590,-123.085610,15.608,33.088,NaN,NaN
20040406,001131,1210281,31.655570,-123.085760,15.609,33.089,NaN,NaN
20040406,001201,1210311,31.655540,-123.085910,15.610,33.089,NaN,NaN
20040406,001231,1210341,31.655520,-123.086060,15.614,33.089,NaN,NaN
20040406,001301,1210371,31.655490,-123.086220,15.616,33.090,NaN,NaN
20040406,001331,1210401,31.655460,-123.086380,15.617,33.090,NaN,NaN
20040406,001401,1210431,31.655480,-123.086530,15.618,33.090,NaN,NaN
20040406,001431,1210461,31.655500,-123.086720,15.618,33.090,NaN,NaN
20040406,001501,1210491,31.655540,-123.086880,15.620,33.091,NaN,NaN
20040406,001531,1210521,31.655590,-123.087040,15.621,33.091,NaN,NaN
20040406,001601,1210551,31.655660,-123.087200,15.621,33.091,NaN,NaN
20040406,001631,1210580,31.655690,-123.087370,15.623,33.092,NaN,NaN
20040406,001701,1210611,31.655750,-123.087520,15.625,33.092,NaN,NaN
20040406,001731,1210641,31.655830,-123.087660,15.626,33.092,NaN,NaN
20040406,001801,1210671,31.655920,-123.087770,15.629,33.093,NaN,NaN
20040406,001831,1210701,31.656010,-123.087860,15.635,33.094,NaN,NaN
20040406,001901,1210731,31.656150,-123.087930,15.637,33.095,NaN,NaN
20040406,001931,1210760,31.656280,-123.087960,15.642,33.095,NaN,NaN
20040406,002001,1210791,31.656460,-123.087930,15.644,33.096,NaN,NaN
20040406,002031,1210821,31.656690,-123.087840,15.644,33.096,NaN,NaN
20040406,002101,1210851,31.656980,-123.087770,15.646,33.096,NaN,NaN
20040406,002131,1210881,31.657300,-123.087680,15.647,33.096,NaN,NaN
20040406,002201,1210911,31.657480,-123.087620,15.649,33.097,NaN,NaN
20040406,002231,1210941,31.657630,-123.087580,15.652,33.096,NaN,NaN
20040406,002301,1210971,31.657880,-123.087530,15.651,33.096,NaN,NaN
20040406,002331,1211001,31.658260,-123.087510,15.651,33.097,NaN,NaN
20040406,002401,1211031,31.658780,-123.087680,15.651,33.097,NaN,NaN
20040406,002431,1211061,31.659220,-123.088180,15.653,33.097,NaN,NaN
20040406,002501,1211090,31.659440,-123.088940,15.657,33.097,NaN,NaN
20040406,002531,1211121,31.659340,-123.089930,15.661,33.098,NaN,NaN
20040406,002601,1211151,31.658850,-123.090860,15.658,33.097,NaN,NaN
20040406,002631,1211181,31.658220,-123.091790,15.650,33.098,NaN,NaN
20040406,002701,1211211,31.657610,-123.092900,15.645,33.098,NaN,NaN
20040406,002731,1211241,31.656950,-123.094090,15.644,33.094,NaN,NaN
20040406,002801,1211270,31.656280,-123.095320,15.642,33.098,NaN,NaN
20040406,002831,1211301,31.655570,-123.096580,15.631,33.098,NaN,NaN
20040406,002901,1211331,31.654870,-123.097860,15.595,33.099,NaN,NaN
20040406,002931,1211361,31.654150,-123.099190,15.599,33.097,NaN,NaN
20040406,003001,1211391,31.653400,-123.100510,15.617,33.100,NaN,NaN
20040406,003031,1211421,31.652660,-123.101860,15.631,33.099,NaN,NaN
20040406,003101,1211451,31.651920,-123.103200,15.641,33.099,NaN,NaN
20040406,003131,1211481,31.651150,-123.104550,15.648,33.099,NaN,NaN
20040406,003201,1211511,31.650400,-123.105920,15.658,33.099,NaN,NaN
20040406,003232,1211542,31.649610,-123.107340,15.660,33.099,NaN,NaN
20040406,003302,1211572,31.648870,-123.108720,15.681,33.100,NaN,NaN
20040406,003332,1211602,31.648090,-123.110090,15.708,33.100,NaN,NaN
20040406,003402,1211632,31.647320,-123.111460,15.733,33.100,NaN,NaN
20040406,003432,1211662,31.646560,-123.112820,15.745,33.100,NaN,NaN
20040406,003502,1211692,31.645820,-123.114220,15.756,33.100,NaN,NaN
20040406,003532,1211722,31.645070,-123.115580,15.765,33.100,NaN,NaN
20040406,003602,1211752,31.644300,-123.116950,15.772,33.100,NaN,NaN
20040406,003633,1211783,31.643540,-123.118320,15.775,33.100,NaN,NaN
20040406,003703,1211813,31.642780,-123.119700,15.775,33.099,NaN,NaN
20040406,003733,1211843,31.642000,-123.121070,15.777,33.099,NaN,NaN
20040406,003803,1211873,31.641240,-123.122450,15.777,33.098,NaN,NaN
20040406,003833,1211903,31.640490,-123.123830,15.779,33.098,NaN,NaN
20040406,003903,1211932,31.639710,-123.125190,15.778,33.098,NaN,NaN
20040406,003933,1211963,31.638940,-123.126550,15.776,33.097,NaN,NaN
20040406,004003,1211993,31.638200,-123.127930,15.777,33.097,NaN,NaN
20040406,004033,1212023,31.637450,-123.129300,15.779,33.096,NaN,NaN
20040406,004103,1212053,31.636690,-123.130680,15.774,33.096,NaN,NaN
20040406,004133,1212083,31.635940,-123.132070,15.773,33.095,NaN,NaN
20040406,004203,1212113,31.635200,-123.133450,15.772,33.094,NaN,NaN
20040406,004233,1212143,31.634430,-123.134790,15.772,33.094,NaN,NaN
20040406,004303,1212173,31.633690,-123.136160,15.774,33.093,NaN,NaN
20040406,004333,1212203,31.632920,-123.137520,15.772,33.092,NaN,NaN
20040406,004403,1212233,31.632180,-123.138910,15.770,33.092,NaN,NaN
20040406,004433,1212262,31.631410,-123.140280,15.766,33.091,NaN,NaN
20040406,004503,1212293,31.630640,-123.141640,15.766,33.090,NaN,NaN
20040406,004533,1212323,31.629890,-123.143010,15.761,33.089,NaN,NaN
20040406,004603,1212353,31.629130,-123.144390,15.758,33.089,NaN,NaN
20040406,004633,1212383,31.628390,-123.145760,15.751,33.089,NaN,NaN
20040406,004703,1212413,31.627630,-123.147120,15.748,33.088,NaN,NaN
20040406,004733,1212442,31.626890,-123.148490,15.745,33.087,NaN,NaN
20040406,004803,1212473,31.626150,-123.149850,15.742,33.087,NaN,NaN
20040406,004833,1212503,31.625380,-123.151210,15.742,33.087,NaN,NaN
20040406,004903,1212533,31.624610,-123.152560,15.743,33.087,NaN,NaN
20040406,004933,1212563,31.623840,-123.153910,15.742,33.088,NaN,NaN
20040406,005003,1212592,31.623080,-123.155280,15.743,33.089,NaN,NaN
20040406,005033,1212623,31.622330,-123.156660,15.744,33.090,NaN,NaN
20040406,005103,1212653,31.621570,-123.158020,15.746,33.090,NaN,NaN
20040406,005133,1212683,31.620810,-123.159390,15.744,33.092,NaN,NaN
20040406,005203,1212713,31.620060,-123.160760,15.748,33.092,NaN,NaN
20040406,005233,1212743,31.619300,-123.162130,15.747,33.092,NaN,NaN
20040406,005303,1212772,31.618540,-123.163480,15.744,33.092,NaN,NaN
20040406,005333,1212803,31.617790,-123.164840,15.747,33.093,NaN,NaN
20040406,005403,1212833,31.617030,-123.166200,15.747,33.094,NaN,NaN
20040406,005433,1212863,31.616270,-123.167560,15.750,33.095,NaN,NaN
20040406,005503,1212893,31.615520,-123.168920,15.750,33.097,NaN,NaN
20040406,005532,1212922,31.614770,-123.170260,15.754,33.099,NaN,NaN
20040406,005602,1212952,31.614000,-123.171610,15.758,33.100,NaN,NaN
20040406,005632,1212982,31.613250,-123.172980,15.765,33.102,NaN,NaN
20040406,005702,1213012,31.612480,-123.174320,15.772,33.105,NaN,NaN
20040406,005732,1213042,31.611710,-123.175670,15.776,33.107,NaN,NaN
20040406,005802,1213072,31.610940,-123.177020,15.780,33.108,NaN,NaN
20040406,005832,1213102,31.610190,-123.178370,15.785,33.110,NaN,NaN
20040406,005902,1213132,31.609430,-123.179720,15.791,33.111,NaN,NaN
20040406,005932,1213162,31.608660,-123.181070,15.794,33.113,NaN,NaN
20040406,010002,1213191,31.607880,-123.182390,15.800,33.116,NaN,NaN
20040406,010032,1213222,31.607130,-123.183740,15.810,33.120,NaN,NaN
20040406,010102,1213252,31.606370,-123.185070,15.817,33.122,NaN,NaN
20040406,010132,1213282,31.605590,-123.186410,15.825,33.125,NaN,NaN
20040406,010203,1213313,31.604830,-123.187750,15.831,33.127,NaN,NaN
20040406,010233,1213343,31.604050,-123.189150,15.835,33.129,NaN,NaN
20040406,010303,1213373,31.603290,-123.190500,15.841,33.130,NaN,NaN
20040406,010333,1213403,31.602560,-123.191800,15.846,33.132,NaN,NaN
20040406,010403,1213433,31.601780,-123.193140,15.851,33.133,NaN,NaN
20040406,010433,1213463,31.601020,-123.194490,15.856,33.133,NaN,NaN
20040406,010503,1213493,31.600260,-123.195850,15.857,33.134,NaN,NaN
20040406,010533,1213523,31.599490,-123.197210,15.861,33.136,NaN,NaN
20040406,010603,1213553,31.598730,-123.198570,15.865,33.137,NaN,NaN
20040406,010633,1213583,31.597970,-123.199910,15.868,33.138,NaN,NaN
20040406,010702,1213612,31.597190,-123.201250,15.870,33.138,NaN,NaN
20040406,010732,1213642,31.596420,-123.202590,15.873,33.139,NaN,NaN
20040406,010802,1213672,31.595680,-123.203940,15.875,33.141,NaN,NaN
20040406,010832,1213701,31.594900,-123.205270,15.880,33.143,NaN,NaN
20040406,010902,1213732,31.594120,-123.206610,15.884,33.145,NaN,NaN
20040406,010933,1213763,31.593350,-123.208010,15.889,33.147,NaN,NaN
20040406,011003,1213792,31.592560,-123.209340,15.892,33.149,NaN,NaN
20040406,011032,1213822,31.591810,-123.210650,15.893,33.150,NaN,NaN
20040406,011102,1213852,31.591050,-123.212010,15.895,33.151,NaN,NaN
20040406,011132,1213881,31.590290,-123.213370,15.897,33.151,NaN,NaN
20040406,011203,1213913,31.589510,-123.214710,15.899,33.152,NaN,NaN
20040406,011233,1213942,31.588750,-123.216080,15.900,33.153,NaN,NaN
20040406,011303,1213973,31.587970,-123.217420,15.903,33.151,NaN,NaN
20040406,011333,1214003,31.587200,-123.218770,15.903,33.154,NaN,NaN
20040406,011403,1214033,31.586430,-123.220110,15.907,33.155,NaN,NaN
20040406,011433,1214063,31.585660,-123.221470,15.908,33.156,NaN,NaN
20040406,011503,1214093,31.584910,-123.222850,15.911,33.159,NaN,NaN
20040406,011533,1214122,31.584160,-123.224210,15.910,33.160,NaN,NaN
20040406,011603,1214153,31.583340,-123.225590,15.916,33.161,NaN,NaN
20040406,011633,1214183,31.582580,-123.226960,15.913,33.162,NaN,NaN
20040406,011703,1214213,31.581820,-123.228330,15.916,33.155,NaN,NaN
20040406,011733,1214243,31.581050,-123.229700,15.918,33.163,NaN,NaN
20040406,011803,1214273,31.580280,-123.231050,15.918,33.165,NaN,NaN
20040406,011833,1214303,31.579510,-123.232410,15.921,33.165,NaN,NaN
20040406,011903,1214333,31.578780,-123.233730,15.927,33.167,NaN,NaN
20040406,011933,1214363,31.578020,-123.235080,15.926,33.168,NaN,NaN
20040406,012003,1214393,31.577250,-123.236450,15.929,33.170,NaN,NaN
20040406,012033,1214423,31.576490,-123.237820,15.931,33.170,NaN,NaN
20040406,012103,1214452,31.575740,-123.239190,15.934,33.171,NaN,NaN
20040406,012133,1214483,31.574970,-123.240540,15.933,33.172,NaN,NaN
20040406,012203,1214513,31.574210,-123.241920,15.934,33.173,NaN,NaN
20040406,012233,1214543,31.573450,-123.243290,15.935,33.173,NaN,NaN
20040406,012303,1214573,31.572670,-123.244650,15.936,33.174,NaN,NaN
20040406,012333,1214603,31.571920,-123.246020,15.938,33.175,NaN,NaN
20040406,012403,1214632,31.571150,-123.247390,15.937,33.175,NaN,NaN
20040406,012433,1214663,31.570400,-123.248760,15.938,33.165,NaN,NaN
20040406,012503,1214693,31.569620,-123.250110,15.940,33.176,NaN,NaN
20040406,012533,1214723,31.568890,-123.251500,15.939,33.176,NaN,NaN
20040406,012603,1214753,31.568160,-123.252890,15.941,33.176,NaN,NaN
20040406,012633,1214783,31.567460,-123.254290,15.942,33.177,NaN,NaN
20040406,012703,1214813,31.566770,-123.255700,15.943,33.178,NaN,NaN
20040406,012733,1214843,31.566040,-123.257090,15.944,33.176,NaN,NaN
20040406,012804,1214873,31.565310,-123.258520,15.947,33.178,NaN,NaN
20040406,012833,1214903,31.564620,-123.259940,15.950,33.180,NaN,NaN
20040406,012903,1214933,31.563910,-123.261330,15.950,33.180,NaN,NaN
20040406,012933,1214962,31.563190,-123.262720,15.950,33.181,NaN,NaN
20040406,013003,1214993,31.562480,-123.264120,15.950,33.181,NaN,NaN
20040406,013033,1215023,31.561780,-123.265510,15.950,33.180,NaN,NaN
20040406,013103,1215053,31.561070,-123.266910,15.949,33.181,NaN,NaN
20040406,013133,1215083,31.560380,-123.268320,15.948,33.180,NaN,NaN
20040406,013203,1215113,31.559650,-123.269710,15.946,33.181,NaN,NaN
20040406,013233,1215142,31.558960,-123.271120,15.946,33.180,NaN,NaN
20040406,013303,1215173,31.558250,-123.272520,15.946,33.181,NaN,NaN
20040406,013333,1215203,31.557550,-123.273930,15.945,33.181,NaN,NaN
20040406,013403,1215233,31.556830,-123.275330,15.944,33.181,NaN,NaN
20040406,013433,1215263,31.556130,-123.276740,15.943,33.181,NaN,NaN
20040406,013503,1215292,31.555420,-123.278140,15.944,33.181,NaN,NaN
20040406,013533,1215323,31.554720,-123.279550,15.944,33.181,NaN,NaN
20040406,013603,1215353,31.554030,-123.280950,15.943,33.181,NaN,NaN
20040406,013633,1215383,31.553310,-123.282350,15.944,33.181,NaN,NaN
20040406,013703,1215413,31.552650,-123.283730,15.943,33.182,NaN,NaN
20040406,013733,1215443,31.551900,-123.285160,15.945,33.178,NaN,NaN
20040406,013803,1215472,31.551200,-123.286570,15.947,33.182,NaN,NaN
20040406,013833,1215503,31.550480,-123.287990,15.946,33.181,NaN,NaN
20040406,013903,1215533,31.549780,-123.289400,15.947,33.182,NaN,NaN
20040406,013933,1215563,31.549080,-123.290800,15.947,33.182,NaN,NaN
20040406,014003,1215593,31.548370,-123.292200,15.946,33.182,NaN,NaN
20040406,014033,1215623,31.547650,-123.293600,15.946,33.178,NaN,NaN
20040406,014103,1215653,31.546970,-123.295010,15.948,33.183,NaN,NaN
20040406,014133,1215683,31.546250,-123.296420,15.946,33.183,NaN,NaN
20040406,014203,1215713,31.545530,-123.297820,15.949,33.183,NaN,NaN
20040406,014233,1215743,31.544840,-123.299240,15.948,33.183,NaN,NaN
20040406,014303,1215773,31.544130,-123.300650,15.949,33.183,NaN,NaN
20040406,014333,1215802,31.543450,-123.302060,15.952,33.183,NaN,NaN
20040406,014403,1215833,31.542750,-123.303450,15.948,33.184,NaN,NaN
20040406,014433,1215863,31.542040,-123.304850,15.948,33.184,NaN,NaN
20040406,014503,1215893,31.541360,-123.306270,15.950,33.184,NaN,NaN
20040406,014533,1215923,31.540670,-123.307690,15.950,33.185,NaN,NaN
20040406,014603,1215953,31.539950,-123.309080,15.953,33.184,NaN,NaN
20040406,014633,1215982,31.539260,-123.310480,15.954,33.184,NaN,NaN
20040406,014703,1216013,31.538570,-123.311890,15.955,33.184,NaN,NaN
20040406,014733,1216043,31.537870,-123.313320,15.952,33.184,NaN,NaN
20040406,014803,1216073,31.537170,-123.314760,15.953,33.184,NaN,NaN
20040406,014833,1216103,31.536480,-123.316180,15.952,33.184,NaN,NaN
20040406,014903,1216133,31.535770,-123.317590,15.954,33.183,NaN,NaN
20040406,014933,1216163,31.535080,-123.319030,15.952,33.183,NaN,NaN
20040406,015003,1216193,31.534390,-123.320470,15.952,33.182,NaN,NaN
20040406,015033,1216223,31.533680,-123.321900,15.950,33.182,NaN,NaN
20040406,015103,1216253,31.532970,-123.323320,15.947,33.182,NaN,NaN
20040406,015133,1216283,31.532260,-123.324760,15.946,33.182,NaN,NaN
20040406,015203,1216312,31.531570,-123.326190,15.945,33.182,NaN,NaN
20040406,015233,1216343,31.530850,-123.327620,15.944,33.181,NaN,NaN
20040406,015303,1216373,31.530160,-123.329050,15.944,33.181,NaN,NaN
20040406,015333,1216403,31.529460,-123.330490,15.948,33.181,NaN,NaN
20040406,015403,1216433,31.528760,-123.331920,15.944,33.181,NaN,NaN
20040406,015433,1216463,31.528070,-123.333340,15.944,33.180,NaN,NaN
20040406,015503,1216492,31.527400,-123.334770,15.943,33.180,NaN,NaN
20040406,015533,1216523,31.526700,-123.336200,15.943,33.180,NaN,NaN
20040406,015603,1216553,31.525990,-123.337600,15.943,33.180,NaN,NaN
20040406,015633,1216583,31.525310,-123.339030,15.947,33.180,NaN,NaN
20040406,015703,1216613,31.524610,-123.340440,15.945,33.181,NaN,NaN
20040406,015733,1216642,31.523910,-123.341850,15.945,33.181,NaN,NaN
20040406,015803,1216673,31.523210,-123.343270,15.945,33.181,NaN,NaN
20040406,015833,1216703,31.522510,-123.344700,15.946,33.181,NaN,NaN
20040406,015903,1216733,31.521810,-123.346130,15.944,33.180,NaN,NaN
20040406,015933,1216763,31.521110,-123.347550,15.944,33.181,NaN,NaN
20040406,020003,1216793,31.520410,-123.348980,15.943,33.181,NaN,NaN
20040406,020033,1216822,31.519700,-123.350400,15.942,33.180,NaN,NaN
20040406,020103,1216853,31.519020,-123.351820,15.942,33.180,NaN,NaN
20040406,020133,1216883,31.518310,-123.353230,15.942,33.180,NaN,NaN
20040406,020203,1216913,31.517610,-123.354640,15.942,33.180,NaN,NaN
20040406,020234,1216944,31.516870,-123.356100,15.943,33.180,NaN,NaN
20040406,020304,1216974,31.516170,-123.357510,15.943,33.181,NaN,NaN
20040406,020334,1217004,31.515470,-123.358940,15.944,33.181,NaN,NaN
20040406,020404,1217034,31.514760,-123.360370,15.944,33.182,NaN,NaN
20040406,020434,1217063,31.514050,-123.361790,15.945,33.182,NaN,NaN
20040406,020504,1217094,31.513360,-123.363210,15.947,33.182,NaN,NaN
20040406,020534,1217124,31.512670,-123.364640,15.945,33.181,NaN,NaN
20040406,020604,1217154,31.511980,-123.366050,15.944,33.181,NaN,NaN
20040406,020634,1217184,31.511300,-123.367450,15.944,33.181,NaN,NaN
20040406,020704,1217214,31.510600,-123.368850,15.944,33.180,NaN,NaN
20040406,020734,1217243,31.509900,-123.370240,15.942,33.179,NaN,NaN
20040406,020804,1217274,31.509210,-123.371660,15.942,33.178,NaN,NaN
20040406,020834,1217304,31.508510,-123.373080,15.940,33.177,NaN,NaN
20040406,020904,1217334,31.507830,-123.374500,15.936,33.176,NaN,NaN
20040406,020934,1217364,31.507170,-123.375930,15.935,33.176,NaN,NaN
20040406,021004,1217394,31.506470,-123.377350,15.932,33.176,NaN,NaN
20040406,021034,1217424,31.505780,-123.378760,15.931,33.176,NaN,NaN
20040406,021104,1217454,31.505080,-123.380150,15.932,33.176,NaN,NaN
20040406,021134,1217484,31.504370,-123.381570,15.934,33.177,NaN,NaN
20040406,021204,1217514,31.503680,-123.382980,15.936,33.179,NaN,NaN
20040406,021234,1217544,31.503010,-123.384380,15.940,33.179,NaN,NaN
20040406,021304,1217573,31.502320,-123.385780,15.944,33.180,NaN,NaN
20040406,021334,1217604,31.501620,-123.387180,15.943,33.181,NaN,NaN
20040406,021404,1217634,31.500930,-123.388590,15.944,33.182,NaN,NaN
20040406,021434,1217664,31.500240,-123.389990,15.946,33.183,NaN,NaN
20040406,021505,1217695,31.499530,-123.391390,15.947,33.183,NaN,NaN
20040406,021535,1217725,31.498860,-123.392800,15.948,33.184,NaN,NaN
20040406,021605,1217755,31.498160,-123.394220,15.949,33.184,NaN,NaN
20040406,021635,1217785,31.497480,-123.395650,15.948,33.183,NaN,NaN
20040406,021705,1217814,31.496770,-123.397060,15.944,33.181,NaN,NaN
20040406,021735,1217845,31.496080,-123.398460,15.940,33.181,NaN,NaN
20040406,021805,1217875,31.495390,-123.399880,15.939,33.180,NaN,NaN
20040406,021835,1217905,31.494720,-123.401300,15.940,33.180,NaN,NaN
20040406,021905,1217935,31.494030,-123.402710,15.936,33.172,NaN,NaN
20040406,021935,1217965,31.493330,-123.404110,15.938,33.181,NaN,NaN
20040406,022005,1217994,31.492640,-123.405520,15.938,33.181,NaN,NaN
20040406,022035,1218025,31.491950,-123.406930,15.937,33.181,NaN,NaN
20040406,022105,1218055,31.491260,-123.408330,15.936,33.179,NaN,NaN
20040406,022134,1218083,31.490570,-123.409720,15.935,33.180,NaN,NaN
20040406,022204,1218114,31.489890,-123.411150,15.932,33.179,NaN,NaN
20040406,022234,1218144,31.489210,-123.412550,15.929,33.178,NaN,NaN
20040406,022304,1218174,31.488530,-123.413970,15.925,33.176,NaN,NaN
20040406,022334,1218204,31.487850,-123.415390,15.922,33.176,NaN,NaN
20040406,022405,1218235,31.487190,-123.416810,15.917,33.175,NaN,NaN
20040406,022435,1218265,31.486510,-123.418220,15.913,33.173,NaN,NaN
20040406,022505,1218295,31.485830,-123.419630,15.910,33.173,NaN,NaN
20040406,022535,1218324,31.485160,-123.421030,15.906,33.172,NaN,NaN
20040406,022605,1218355,31.484490,-123.422450,15.906,33.171,NaN,NaN
20040406,022635,1218385,31.483810,-123.423850,15.902,33.171,NaN,NaN
20040406,022704,1218413,31.483130,-123.425250,15.901,33.170,NaN,NaN
20040406,022734,1218444,31.482480,-123.426650,15.900,33.170,NaN,NaN
20040406,022804,1218474,31.481810,-123.428050,15.899,33.169,NaN,NaN
20040406,022834,1218504,31.481130,-123.429470,15.898,33.169,NaN,NaN
20040406,022904,1218534,31.480460,-123.430870,15.898,33.169,NaN,NaN
20040406,022934,1218564,31.479810,-123.432260,15.897,33.168,NaN,NaN
20040406,023004,1218593,31.479140,-123.433660,15.896,33.168,NaN,NaN
20040406,023034,1218624,31.478480,-123.435050,15.894,33.167,NaN,NaN
20040406,023104,1218654,31.477820,-123.436470,15.893,33.167,NaN,NaN
20040406,023134,1218684,31.477120,-123.437850,15.893,33.166,NaN,NaN
20040406,023204,1218714,31.476440,-123.439230,15.890,33.166,NaN,NaN
20040406,023234,1218744,31.475800,-123.440630,15.889,33.166,NaN,NaN
20040406,023304,1218774,31.475130,-123.442030,15.886,33.165,NaN,NaN
20040406,023334,1218804,31.474470,-123.443450,15.884,33.165,NaN,NaN
20040406,023404,1218834,31.473800,-123.444840,15.883,33.165,NaN,NaN
20040406,023434,1218864,31.473110,-123.446240,15.881,33.165,NaN,NaN
20040406,023504,1218894,31.472450,-123.447650,15.882,33.165,NaN,NaN
20040406,023534,1218923,31.471810,-123.449050,15.882,33.164,NaN,NaN
20040406,023604,1218954,31.471140,-123.450420,15.880,33.164,NaN,NaN
20040406,023634,1218984,31.470480,-123.451830,15.879,33.164,NaN,NaN
20040406,023704,1219014,31.469830,-123.453220,15.880,33.163,NaN,NaN
20040406,023734,1219044,31.469170,-123.454610,15.878,33.163,NaN,NaN
20040406,023804,1219074,31.468510,-123.456000,15.877,33.163,NaN,NaN
20040406,023834,1219104,31.467850,-123.457390,15.877,33.162,NaN,NaN
20040406,023904,1219134,31.467190,-123.458790,15.875,33.162,NaN,NaN
20040406,023934,1219164,31.466540,-123.460190,15.873,33.162,NaN,NaN
20040406,024004,1219194,31.465870,-123.461590,15.872,33.162,NaN,NaN
20040406,024034,1219224,31.465190,-123.462990,15.871,33.163,NaN,NaN
20040406,024104,1219253,31.464550,-123.464410,15.872,33.163,NaN,NaN
20040406,024134,1219284,31.463870,-123.465800,15.874,33.164,NaN,NaN
20040406,024204,1219314,31.463220,-123.467220,15.876,33.165,NaN,NaN
20040406,024234,1219344,31.462550,-123.468610,15.878,33.165,NaN,NaN
20040406,024304,1219374,31.461890,-123.470020,15.880,33.165,NaN,NaN
20040406,024334,1219404,31.461240,-123.471430,15.883,33.165,NaN,NaN
20040406,024404,1219433,31.460560,-123.472830,15.882,33.164,NaN,NaN
20040406,024434,1219464,31.459920,-123.474240,15.876,33.161,NaN,NaN
20040406,024504,1219494,31.459260,-123.475650,15.870,33.157,NaN,NaN
20040406,024534,1219524,31.458600,-123.477060,15.863,33.155,NaN,NaN
20040406,024604,1219554,31.457930,-123.478470,15.858,33.153,NaN,NaN
20040406,024635,1219585,31.457250,-123.479920,15.853,33.151,NaN,NaN
20040406,024704,1219614,31.456630,-123.481290,15.847,33.149,NaN,NaN
20040406,024734,1219644,31.455970,-123.482660,15.841,33.148,NaN,NaN
20040406,024804,1219674,31.455320,-123.484060,15.841,33.147,NaN,NaN
20040406,024835,1219705,31.454650,-123.485500,15.837,33.148,NaN,NaN
20040406,024904,1219734,31.454010,-123.486830,15.837,33.148,NaN,NaN
20040406,024934,1219763,31.453360,-123.488230,15.837,33.148,NaN,NaN
20040406,025004,1219794,31.452720,-123.489630,15.840,33.148,NaN,NaN
20040406,025034,1219824,31.452060,-123.491010,15.843,33.148,NaN,NaN
20040406,025105,1219855,31.451380,-123.492440,15.840,33.147,NaN,NaN
20040406,025134,1219884,31.450760,-123.493790,15.839,33.148,NaN,NaN
20040406,025204,1219914,31.450110,-123.495170,15.840,33.148,NaN,NaN
20040406,025235,1219945,31.449450,-123.496550,15.839,33.148,NaN,NaN
20040406,025304,1219974,31.448780,-123.497930,15.838,33.147,NaN,NaN